Wind_Speed
1 1 1 1 1 1 1 1 1 1 1 1 2 1 2 3 3 3 3 3 4 4 4 4 3 3 3 3 3 4 4 4 4 3 3 3 4 6 7 7 7 7 6 6 7 7 7 6 6 6 6 6 6 6 6 6 6 6 6 6 6 6 7 7 7 7 8 8 8 8 8 8 7 7
3 3 2 2 2 2 2 1 1 1 1 1 2 3 3 3 3 3 3 3 3 3 3 3 2 1 1 2 2 3 4 4 3 3 3 4 5 5 6 6 6 6 5 5 5 5 5 5 5 5 5 5 4 4 4 4 5 5 5 5 5 5 4 4 5 5 5 5 5 5 5 5 5 5
5 4 3 3 3 3 2 2 2 2 2 2 2 2 2 3 3 3 3 3 2 2 1 2 2 2 2 2 3 4 4 4 3 4 4 4 5 6 6 6 5 5 5 4 4 3 3 3 3 3 3 3 3 3 2 2 3 2 3 3 3 3 3 3 3 2 2 2 2 3 3 3 3 3
6 6 5 5 5 4 3 3 2 3 2 2 2 2 1 1 2 2 2 1 1 0 1 1 2 3 3 4 4 4 4 4 4 5 6 6 6 7 6 6 6 6 5 4 4 3 3 2 2 2 2 2 2 2 2 2 2 1 1 1 1 1 1 2 1 1 1 0 1 1 1 1 1 1
8 8 7 7 7 6 6 5 4 4 4 3 3 3 3 2 2 2 2 2 3 3 2 2 3 4 4 4 5 5 5 5 5 5 6 6 7 7 7 8 7 7 6 6 5 5 4 4 3 3 3 3 3 3 3 3 3 3 3 3 3 2 2 2 2 2 1 1 1 1 1 1 2 2
8 8 8 8 8 8 7 7 6 6 6 5 5 5 5 4 3 4 4 4 4 4 4 4 5 5 5 5 6 6 6 6 6 6 6 6 7 8 9 9 8 8 8 7 7 6 5 5 5 5 4 4 4 4 4 4 4 5 5 5 5 5 5 5 5 5 4 4 4 4 3 3 4 4
8 8 8 8 7 7 8 8 7 7 7 7 7 7 7 6 6 6 6 6 6 5 5 6 6 6 7 7 7 7 6 6 6 6 7 7 7 8 9 9 9 9 9 9 9 8 7 6 6 6 5 5 5 5 5 5 6 6 6 7 7 7 8 8 8 8 8 8 7 7 6 6 6 6
10 9 9 9 9 8 8 8 8 7 8 9 8 8 8 8 8 7 7 8 8 6 6 7 7 8 9 8 9 9 9 8 7 7 7 8 9 9 9 9 10 10 10 10 10 9 9 8 7 6 6 6 6 6 6 6 7 7 8 8 8 9 9 9 10 10 10 11 11 10 10 10 9 9
12 11 11 11 10 10 9 9 9 8 9 10 9 9 9 9 10 9 8 9 10 8 8 9 9 9 10 10 10 12 13 12 10 9 8 9 10 10 9 10 11 11 11 10 10 10 10 9 9 8 7 7 6 6 6 6 7 8 8 9 9 10 10 11 11 11 11 12 12 13 13 13 12 12
14 13 13 12 12 12 11 11 11 10 10 10 10 10 11 11 11 10 9 10 11 10 9 10 11 11 12 12 12 13 15 15 13 12 11 11 11 12 11 11 11 11 11 12 12 11 11 11 10 10 9 8 8 8 7 7 7 8 8 9 10 10 11 12 12 12 13 13 13 14 14 14 14 14
16 16 15 14 14 14 13 13 14 13 12 11 11 12 13 13 13 11 10 11 12 12 12 13 14 14 14 15 15 15 15 15 15 14 14 13 13 14 13 13 12 12 12 13 13 12 12 12 12 12 11 10 10 9 9 9 9 9 10 10 10 11 11 12 13 13 13 14 14 14 15 15 15 15
17 17 16 16 16 16 16 15 15 15 15 15 15 14 14 15 14 13 13 13 13 14 15 15 16 17 17 17 17 17 17 16 16 16 15 15 14 15 15 15 14 14 13 14 14 13 13 13 13 13 13 12 12 12 11 11 11 11 11 12 12 12 12 13 13 13 14 14 14 15 15 15 15 15
19 18 18 18 18 17 17 17 16 16 16 17 17 17 16 17 17 16 15 15 15 15 16 17 17 18 18 18 17 18 18 18 17 17 16 16 15 15 15 15 16 15 14 14 14 14 14 14 14 14 14 13 13 13 13 13 12 12 12 12 13 13 13 14 14 14 14 15 15 15 15 15 15 15
21 21 21 21 20 19 19 18 18 17 17 17 18 19 19 19 19 18 18 18 18 18 18 18 18 18 19 20 19 18 18 18 18 17 17 17 17 16 15 15 16 17 16 15 15 15 15 15 15 15 15 15 15 14 14 14 14 14 14 13 13 14 14 14 15 15 16 16 16 16 17 17 17 17
24 23 23 23 22 22 21 20 20 20 19 18 18 19 20 21 20 20 20 20 20 21 21 20 20 19 20 21 21 21 20 19 19 19 18 18 18 17 16 16 16 17 17 17 16 16 16 16 17 17 17 17 17 17 16 16 16 16 16 16 15 15 15 15 16 16 17 17 18 18 18 18 18 18
26 25 25 25 24 24 23 22 22 23 22 20 18 18 21 22 22 21 21 22 22 23 24 23 22 22 22 22 23 22 22 21 21 21 20 20 20 19 18 17 17 17 18 18 18 17 17 17 18 19 19 19 19 19 19 19 19 19 19 18 18 18 17 17 17 17 18 18 19 19 19 19 19 20
28 28 28 28 27 26 25 25 25 25 25 24 21 21 24 25 24 22 23 23 24 25 25 25 24 23 23 24 24 24 24 23 23 22 22 21 21 20 20 18 18 19 19 19 19 19 19 19 19 20 22 22 21 21 21 21 22 22 22 22 21 21 20 20 19 19 19 19 20 20 21 21 21 21
29 29 30 30 30 29 28 28 28 27 25 25 24 24 26 27 26 25 25 25 26 27 27 27 26 24 24 24 25 25 25 25 24 23 23 23 22 22 21 19 18 20 21 21 20 20 20 21 21 21 22 24 24 24 23 23 23 24 25 25 24 24 23 23 22 21 21 21 21 22 22 22 23 23
30 30 30 31 31 31 31 30 30 28 28 29 31 31 30 29 29 28 26 26 27 28 29 29 28 27 26 26 26 27 27 26 25 25 25 25 24 22 22 21 21 21 22 22 22 22 23 22 22 22 23 25 26 26 25 25 25 25 26 26 26 26 26 25 25 24 24 23 23 23 23 24 24 24
31 31 31 32 33 33 32 31 32 32 31 31 32 32 31 31 30 29 28 28 28 29 30 29 29 28 28 28 28 28 28 27 26 26 26 26 26 24 23 23 24 23 23 24 25 24 24 23 23 23 22 24 26 27 26 26 26 26 27 28 28 28 28 28 27 27 27 26 26 26 26 26 26 26
32 32 32 34 35 34 32 33 35 36 34 29 27 27 29 31 32 31 30 30 30 31 30 30 30 30 30 30 29 29 29 29 28 28 28 27 27 26 24 25 26 25 24 25 26 25 25 25 24 23 22 23 25 27 28 28 27 27 29 29 30 30 30 29 29 29 29 29 29 28 28 28 28 28
33 34 34 34 35 35 35 37 38 37 34 31 28 28 29 30 30 31 32 32 32 33 32 31 32 31 31 30 30 30 30 30 30 30 30 30 29 28 28 28 29 28 26 25 27 28 26 26 26 27 27 26 24 23 26 30 30 29 30 31 31 32 32 31 31 31 31 31 31 31 30 30 30 30
31 34 36 35 36 36 36 38 38 36 35 35 35 34 32 30 29 29 30 31 33 34 33 33 34 33 32 32 31 31 31 31 30 30 31 32 31 31 32 31 31 31 29 28 29 29 27 28 30 29 30 31 28 25 26 29 31 32 32 33 33 33 33 33 33 33 33 33 33 33 33 33 32 32
31 32 33 34 35 36 36 36 36 36 36 37 38 37 35 34 33 31 31 30 32 33 33 34 35 35 34 33 32 32 32 31 31 32 33 34 32 31 33 34 33 33 34 34 34 30 27 29 32 31 31 33 35 33 30 32 33 33 34 34 34 35 35 35 35 35 35 35 35 35 36 36 35 35
34 33 33 33 35 36 37 37 36 36 36 36 36 36 35 34 34 34 34 32 32 33 33 34 35 36 36 36 35 35 35 34 33 34 36 36 34 34 34 34 34 35 36 37 37 33 30 32 35 36 35 36 38 38 36 36 36 35 35 35 34 35 36 36 36 37 37 37 37 38 38 38 38 38
39 37 36 35 35 37 39 39 38 37 37 36 35 34 34 34 34 34 34 34 34 34 33 34 35 35 36 37 38 38 38 36 35 35 37 38 37 36 34 31 31 35 37 38 38 36 35 35 38 40 39 37 39 40 39 39 38 36 36 36 34 34 35 35 35 37 37 38 39 39 39 40 40 40
43 41 38 38 38 39 41 42 42 40 39 39 38 36 36 36 36 35 35 35 35 35 35 35 34 34 33 33 34 37 36 34 34 36 39 40 38 35 32 28 29 33 35 37 39 39 38 37 38 40 39 37 38 40 40 39 37 33 33 34 33 33 33 33 34 36 36 37 38 39 39 39 40 41
46 43 40 39 40 40 41 42 44 44 43 42 42 41 40 39 39 38 37 37 36 35 35 34 33 33 32 31 33 37 37 35 35 37 40 42 39 35 31 29 30 32 33 35 37 38 38 36 35 36 36 36 36 37 37 37 35 32 30 30 32 32 32 32 33 33 33 34 35 37 37 38 38 40
46 45 43 42 42 41 39 39 42 44 45 44 44 43 42 41 40 39 38 37 37 36 35 34 32 31 31 31 33 36 36 36 38 39 39 38 36 34 32 30 31 33 33 34 36 37 37 35 33 33 35 35 34 34 33 33 32 30 27 26 29 31 30 30 31 31 31 32 33 34 35 36 37 38
45 45 45 45 45 44 43 42 43 44 44 44 44 42 40 39 38 37 36 35 35 34 34 33 32 32 32 32 32 32 32 34 35 35 34 31 29 29 30 31 33 35 35 36 38 38 37 36 34 34 35 35 34 33 32 30 29 28 26 25 27 30 29 29 32 33 32 33 35 36 36 37 38 39
44 46 47 47 46 46 45 44 43 43 42 41 41 39 36 35 35 34 33 33 32 32 32 32 32 32 32 33 32 32 31 30 29 29 29 28 27 28 30 31 34 37 39 39 38 37 37 36 36 35 35 35 35 33 32 31 31 31 29 29 30 33 33 32 35 38 38 38 40 41 40 41 42 43
43 44 43 42 40 39 38 37 37 36 35 34 34 33 32 32 32 32 32 31 31 31 31 31 31 31 31 31 31 33 33 31 29 29 30 31 31 33 34 34 35 36 37 36 33 33 34 33 34 35 35 34 34 33 33 34 34 35 36 35 36 38 39 39 40 41 43 44 46 46 45 45 46 47
38 36 34 32 32 31 30 29 28 28 27 27 28 28 29 29 30 31 31 32 32 32 32 32 33 33 32 32 32 33 35 35 35 34 34 33 33 33 34 35 35 35 33 30 29 29 30 31 33 36 37 36 36 37 38 40 41 41 42 42 41 42 43 45 45 45 46 48 49 50 49 48 49 50
32 30 28 28 29 28 27 26 25 25 26 26 27 29 29 30 31 32 33 34 34 35 35 35 35 35 34 34 34 34 34 36 36 38 39 40 39 36 34 34 35 36 35 34 33 33 34 35 37 40 41 41 41 43 44 46 46 46 46 45 46 47 48 49 50 50 50 50 51 52 52 52 52 52
28 27 27 28 29 28 28 27 27 28 29 30 31 32 33 33 34 35 36 36 37 38 38 38 38 37 37 37 37 38 39 41 42 43 46 47 46 44 42 40 39 38 37 37 36 36 37 39 41 42 43 43 43 44 45 46 47 46 46 47 49 51 52 53 53 52 52 52 53 54 54 55 56 55
29 29 29 30 30 30 30 31 31 32 33 34 35 35 36 36 37 38 38 39 39 40 40 40 40 40 40 39 40 41 43 45 46 47 48 48 47 46 44 42 41 40 39 39 38 37 39 41 42 42 42 43 43 45 46 48 49 49 49 50 52 53 54 54 55 55 55 55 55 55 55 56 57 59
35 35 35 35 35 35 35 35 35 36 36 37 38 38 39 40 40 40 41 42 42 42 43 43 43 43 43 43 43 44 45 46 47 48 48 48 48 48 47 46 46 46 46 46 45 43 44 45 46 46 46 47 50 52 53 53 53 53 53 55 56 56 56 56 56 57 58 58 58 58 58 58 59 61
39 39 39 39 39 39 39 39 40 40 41 41 42 42 43 43 43 44 44 45 45 46 46 46 46 47 47 47 47 47 47 48 49 49 49 50 50 50 51 50 50 50 51 51 51 51 51 52 54 56 56 56 57 59 59 58 57 56 55 56 59 60 59 58 58 59 60 61 61 61 61 61 61 62
42 42 42 42 42 43 44 44 45 45 46 46 47 47 47 47 48 48 48 48 49 49 49 49 50 50 50 50 50 51 51 51 51 52 52 53 53 53 54 54 54 54 55 55 56 56 57 57 57 58 60 61 61 60 60 61 60 59 57 57 58 60 60 60 61 61 62 62 63 63 64 64 64 65
45 45 46 46 46 47 47 48 49 49 50 50 51 51 51 52 52 52 52 52 52 52 52 52 52 52 52 53 53 53 53 54 54 54 55 55 55 56 56 57 57 58 58 59 59 60 61 60 59 59 60 62 63 63 63 63 63 64 63 61 61 61 61 62 64 64 65 66 66 66 67 67 68 69
48 49 49 50 51 51 51 52 52 52 53 53 54 54 54 54 54 55 55 55 56 56 55 55 55 55 55 55 55 55 55 56 56 56 56 56 57 57 57 58 59 60 60 61 62 63 63 63 62 62 64 65 65 65 66 66 67 68 68 67 66 65 65 65 66 67 67 68 69 69 70 70 71 73
49 49 50 51 52 52 53 53 54 54 54 54 54 55 56 56 56 57 57 57 58 58 58 57 57 57 57 57 57 57 57 58 58 57 57 58 58 59 59 59 59 60 61 62 62 63 64 63 63 64 65 66 66 67 67 68 68 69 70 70 70 69 68 68 68 69 69 70 70 71 72 73 73 74
49 49 49 50 50 51 52 53 53 54 54 54 54 54 55 55 56 56 57 57 58 58 59 59 58 58 58 58 58 58 59 59 59 58 59 59 59 59 59 60 60 60 61 62 62 63 64 64 63 64 64 65 66 66 67 67 68 68 69 70 70 70 70 70 70 70 70 71 71 72 72 73 74 74
51 51 51 51 51 52 52 52 53 54 54 55 55 55 55 55 55 55 55 56 56 57 58 58 58 58 58 59 59 59 60 60 59 60 60 60 60 60 60 60 61 61 61 61 61 62 63 63 63 63 63 64 64 65 65 66 66 67 67 68 69 69 69 69 69 69 69 69 70 71 71 72 72 73
52 53 53 54 54 54 54 55 55 55 55 55 56 56 56 56 56 56 57 56 56 57 57 58 58 58 59 59 60 60 60 61 61 62 62 62 62 62 62 62 62 62 63 63 63 63 63 63 63 64 64 65 65 65 65 66 66 67 67 67 68 69 69 69 70 70 70 70 70 70 71 71 71 72
Wind_Direction
277 273 284 273 247 262 293 273 202 191 301 316 316 347 9 346 7 41 35 35 33 31 45 41 28 31 26 20 43 65 66 61 53 38 28 22 12 10 8 1 4 8 5 4 10 18 26 35 43 49 56 60 64 70 75 80 82 83 85 87 92 97 102 105 108 110 111 112 112 112 110 108 105 102
282 289 301 310 305 308 314 301 297 318 328 337 341 359 7 354 9 39 45 45 45 38 16 3 13 39 3 324 340 43 56 41 30 14 2 357 354 353 342 337 346 353 356 355 352 3 14 20 26 30 38 47 51 55 59 66 75 84 87 87 86 86 89 94 101 107 111 115 117 117 117 114 111 107
285 288 291 292 289 288 290 295 310 321 322 334 351 6 7 4 12 27 37 40 54 74 13 330 332 310 297 300 332 17 27 13 3 356 355 348 338 333 321 318 328 334 340 338 328 334 347 360 9 7 10 18 24 33 37 38 48 62 75 87 95 93 92 88 84 86 91 98 104 105 109 110 108 105
288 289 289 286 284 283 281 285 286 282 291 306 323 346 352 2 360 350 10 18 353 260 227 292 305 300 313 330 343 357 351 347 351 341 337 334 330 326 316 314 323 325 323 318 309 306 308 317 324 323 327 331 337 344 341 341 344 342 357 16 53 98 121 123 119 112 86 62 46 46 43 43 41 46
293 293 294 292 291 290 285 282 278 271 275 283 296 315 316 313 326 317 308 291 279 278 278 290 290 292 311 321 321 326 326 334 341 329 327 332 328 321 316 318 323 320 316 312 303 295 293 295 290 285 280 278 285 295 300 302 300 298 296 292 293 289 280 269 248 241 243 253 269 288 296 311 317 317
291 293 295 296 297 296 289 283 278 275 276 277 283 293 293 292 292 279 274 268 263 268 274 275 276 281 287 291 297 309 318 324 327 324 325 329 325 321 321 321 319 316 314 310 302 296 291 286 282 277 269 265 264 265 271 275 278 282 281 282 282 279 281 282 280 279 275 272 273 273 275 282 286 290
277 281 286 291 292 290 286 281 277 277 279 278 275 275 276 278 275 268 270 276 272 272 276 273 273 276 276 278 286 294 300 304 309 315 320 322 323 324 322 320 316 315 314 310 305 301 295 286 280 274 266 264 262 260 261 262 264 266 267 271 273 273 275 276 278 281 282 282 282 278 277 276 275 278
267 271 275 282 285 285 286 284 283 283 282 278 273 273 274 274 273 270 269 274 271 268 275 277 278 282 284 287 293 293 292 291 294 303 311 315 318 322 321 319 316 314 313 310 307 302 298 293 285 276 269 264 261 259 257 258 260 261 262 263 265 267 269 271 272 274 276 279 281 281 281 281 279 279
262 265 268 273 279 283 287 289 288 285 281 279 276 275 275 273 273 274 275 278 278 276 281 282 279 279 280 283 287 290 291 290 290 295 301 306 309 312 314 311 309 310 309 306 304 301 298 295 289 282 276 271 265 260 255 252 253 255 258 261 263 264 265 266 267 267 269 271 274 276 278 280 281 281
259 259 261 264 267 272 276 279 279 274 270 273 275 273 271 266 266 272 277 281 282 282 281 279 275 271 271 270 270 275 281 285 288 292 296 300 302 303 304 302 301 303 303 300 298 297 295 291 288 284 280 278 276 272 267 262 258 255 255 256 258 261 263 264 264 264 265 266 267 270 272 275 277 278
259 258 258 259 259 261 264 265 268 269 266 268 269 267 266 264 263 267 268 268 272 274 271 269 268 269 272 273 273 275 278 280 284 288 290 293 295 297 298 297 296 295 295 294 293 293 291 288 285 283 281 280 279 278 278 277 274 271 267 263 260 260 260 261 262 262 263 264 265 266 268 270 273 275
258 258 259 259 257 258 260 261 264 266 268 271 269 264 263 266 267 265 264 262 263 267 268 268 267 269 274 277 277 279 280 282 285 286 286 287 289 291 293 294 293 292 290 288 288 289 289 286 284 282 281 280 279 279 280 279 278 277 275 273 271 268 266 263 262 262 262 263 265 266 267 268 270 273
256 254 254 254 253 254 257 260 262 263 267 271 272 268 266 269 268 265 264 264 261 261 265 269 271 273 278 280 281 279 278 280 283 285 286 288 288 289 290 290 290 290 286 283 282 281 281 281 282 280 278 277 277 278 280 281 280 279 276 275 274 273 272 270 268 267 264 264 264 265 268 269 269 270
256 254 253 252 252 253 255 257 260 259 260 264 269 271 270 270 270 269 268 267 265 262 262 263 266 269 273 277 280 280 280 279 280 283 286 287 286 286 286 286 287 287 284 280 278 277 276 276 277 276 275 275 276 278 281 284 286 286 283 280 277 275 275 273 273 272 270 269 267 267 267 268 268 268
256 256 257 257 257 258 258 258 259 259 257 258 262 267 268 266 266 268 270 270 269 268 265 263 263 264 267 271 274 276 279 278 277 277 281 283 285 284 282 281 283 284 283 281 276 273 272 271 272 275 275 276 278 281 283 283 284 286 286 285 283 280 279 277 276 275 273 272 271 270 269 269 269 269
260 259 259 259 260 261 260 260 261 261 261 260 260 263 264 262 260 259 263 267 267 268 268 267 267 266 266 268 270 273 277 278 278 277 278 280 282 284 282 280 279 280 281 281 279 276 272 269 270 272 274 275 276 278 279 279 279 279 280 280 280 280 279 279 278 278 277 276 274 273 272 271 271 271
263 263 263 262 262 262 262 262 262 263 265 265 263 261 261 261 261 259 258 259 262 264 265 266 267 268 270 271 273 274 276 278 277 276 274 275 278 281 281 279 277 278 277 277 277 276 273 271 270 270 272 274 275 274 274 274 275 275 275 275 276 276 276 275 275 276 277 278 278 278 276 275 274 273
264 265 265 265 264 264 263 264 267 268 268 269 268 265 261 260 262 263 260 259 261 264 266 267 268 269 271 273 274 275 276 277 277 274 272 272 276 279 280 279 276 276 276 274 273 272 270 270 269 268 269 272 274 274 274 273 272 272 273 274 274 274 274 273 272 272 273 274 275 276 277 277 276 275
265 265 265 266 266 265 265 267 270 271 269 268 270 269 263 261 263 264 263 262 263 266 268 270 273 274 274 274 274 274 275 276 278 277 274 273 275 277 280 279 276 275 274 272 271 271 270 267 266 265 266 268 271 272 273 273 273 273 273 274 275 275 274 274 273 272 271 271 271 271 273 273 274 275
264 264 264 266 266 267 267 267 266 267 266 267 268 265 262 264 268 267 266 265 265 267 268 269 272 274 274 273 272 272 274 275 277 278 276 274 272 273 274 276 276 274 273 274 274 274 272 268 265 264 263 263 266 270 270 270 271 273 275 275 276 276 276 275 275 274 273 272 272 271 271 271 271 272
266 266 265 265 266 267 267 265 264 265 264 264 265 263 262 266 268 266 266 267 266 265 266 267 268 269 269 268 268 269 270 271 271 271 272 270 267 267 268 269 270 269 269 274 276 273 270 267 264 264 264 261 261 266 270 271 270 270 272 274 274 275 275 275 275 275 275 275 275 274 274 273 274 274
267 267 265 264 264 264 262 260 262 265 265 266 267 266 264 265 268 268 267 266 265 264 265 267 268 270 270 270 271 272 271 270 269 269 270 269 268 269 269 269 270 270 270 271 270 269 271 271 268 267 268 267 260 258 263 270 273 272 271 272 272 272 273 273 273 273 273 274 274 275 275 275 275 276
264 263 264 264 263 263 261 261 262 265 267 267 266 265 262 261 267 271 267 264 265 265 266 267 268 269 270 271 273 274 272 271 271 270 270 269 269 270 270 270 271 272 271 269 267 268 272 273 272 270 269 269 267 261 260 266 272 274 274 273 272 271 271 272 272 272 272 273 273 274 275 275 276 276
259 259 260 261 262 263 262 262 263 263 264 264 264 264 263 260 262 266 263 263 267 267 264 266 267 267 269 271 273 273 271 270 269 268 268 269 269 268 268 269 270 270 270 269 268 268 267 267 270 270 268 269 270 269 267 268 269 270 271 271 271 271 270 270 271 272 272 273 273 274 274 275 275 276
256 257 257 258 259 261 261 261 261 260 260 262 263 265 265 262 261 262 261 263 268 267 264 265 268 270 272 273 272 271 270 271 269 267 269 270 270 268 268 269 271 271 270 269 267 265 263 265 269 270 269 269 270 271 271 271 270 269 267 266 267 268 268 268 270 271 272 272 273 273 274 274 275 276
253 255 256 258 260 262 262 262 263 262 262 263 264 264 265 264 263 262 262 264 267 267 265 266 269 272 274 274 273 270 270 272 270 269 269 268 268 270 270 269 272 274 271 268 267 265 265 268 271 272 270 268 269 271 272 272 271 269 267 266 265 265 266 266 267 268 270 271 272 272 272 273 274 275
254 255 256 257 258 260 260 261 262 263 264 265 265 264 264 265 266 265 265 266 267 267 266 267 269 272 273 273 271 268 266 266 265 263 264 263 264 268 268 267 271 276 274 269 266 266 269 271 271 270 268 266 266 269 271 271 270 267 265 265 265 264 264 265 265 266 267 268 269 270 270 270 271 272
255 255 257 257 257 259 261 261 261 262 263 264 265 265 266 267 269 271 270 270 269 267 267 267 268 270 270 268 264 261 259 258 258 259 262 262 261 262 263 260 262 269 273 270 266 265 268 269 267 265 265 264 265 268 270 270 270 266 261 261 263 264 264 264 264 265 265 265 265 266 267 267 267 268
254 255 256 257 258 260 263 264 264 264 263 263 263 264 265 266 269 271 271 271 270 268 268 267 265 265 267 267 265 262 260 259 259 260 262 263 262 260 257 253 254 261 269 270 267 264 263 263 262 261 263 265 267 269 271 271 272 269 263 259 259 262 264 265 266 266 268 269 268 268 268 269 269 269
256 257 259 260 261 261 263 266 267 264 262 261 261 261 263 264 265 267 267 267 267 268 268 268 266 266 268 269 270 270 268 266 263 260 260 261 261 259 258 256 257 262 267 270 270 265 258 256 259 261 263 266 268 271 273 275 275 274 270 265 263 263 265 268 271 272 272 273 273 273 272 273 274 274
257 259 261 263 264 264 263 262 260 257 254 255 256 257 258 259 259 261 262 263 265 266 268 270 270 270 270 271 273 275 274 272 268 265 263 261 257 255 257 259 261 265 269 271 270 263 255 254 259 263 265 267 269 272 275 277 277 277 275 273 272 272 271 271 273 275 275 274 274 274 274 274 274 274
256 257 259 259 258 257 256 253 251 249 249 250 252 253 254 255 257 259 261 263 265 267 268 270 272 272 272 272 273 274 274 273 273 272 268 263 258 256 255 255 258 263 267 266 262 257 255 257 261 264 266 268 270 273 276 278 279 279 279 278 277 278 278 277 275 275 275 275 274 274 274 274 274 274
252 253 254 254 253 252 250 248 248 250 252 254 256 257 258 259 260 262 264 265 267 268 269 270 271 271 272 272 272 272 272 273 274 273 270 266 262 258 254 251 252 255 257 256 256 257 260 263 265 266 267 268 271 273 275 276 277 277 277 278 278 278 279 279 277 276 276 276 276 276 276 276 276 276
245 246 247 248 250 251 251 251 253 256 258 260 261 263 263 264 264 265 266 268 268 269 269 270 270 270 271 270 270 269 270 271 271 272 273 273 273 271 267 264 263 261 262 265 268 271 271 269 268 269 270 271 272 273 273 274 275 275 275 276 277 278 278 277 277 277 277 277 278 278 278 278 277 277
240 242 243 245 248 250 251 252 254 257 259 261 262 263 264 265 266 267 268 269 270 270 271 271 271 271 270 270 269 268 269 270 272 274 276 278 280 280 279 278 276 275 274 274 275 275 274 272 271 273 275 276 276 274 274 275 276 275 275 275 276 278 278 277 276 276 276 277 277 278 278 278 278 278
252 252 252 253 255 256 257 257 258 258 259 260 261 263 264 265 266 267 268 269 270 271 271 272 272 272 271 270 269 268 268 270 272 273 275 276 278 279 279 277 276 275 273 273 271 269 269 270 272 274 276 277 276 275 276 278 280 280 278 277 277 277 278 277 277 277 277 276 276 277 277 278 279 279
264 264 263 263 263 263 262 262 261 261 261 262 262 263 265 266 267 268 269 269 270 270 271 271 272 272 272 271 270 270 269 270 271 272 273 275 276 276 276 275 273 271 270 269 267 266 265 267 271 273 274 274 274 275 276 277 278 279 279 278 278 278 277 276 276 277 277 277 277 277 278 278 279 279
269 268 267 267 267 266 265 264 263 263 263 263 264 265 265 266 267 269 270 270 271 271 271 272 272 272 272 272 272 271 271 271 271 272 272 273 274 274 275 275 274 273 271 270 268 267 266 268 271 273 274 275 275 276 276 276 275 275 275 276 277 277 277 277 276 276 276 276 277 278 278 278 278 279
270 269 268 267 267 267 267 267 266 266 266 266 267 267 267 267 268 269 269 270 271 271 272 272 273 273 273 273 273 272 272 271 271 271 271 272 272 273 273 274 274 273 273 273 272 271 270 271 273 275 276 276 276 276 277 276 276 275 274 274 274 276 277 277 277 276 276 277 277 278 278 278 278 278
269 270 269 269 269 269 269 269 269 269 269 270 270 270 270 271 271 271 272 272 272 273 273 273 273 273 273 273 273 273 273 272 272 272 272 272 271 271 271 272 272 272 272 272 273 273 272 273 274 276 276 276 277 277 277 277 278 277 276 275 275 275 275 275 276 277 277 278 278 278 278 278 278 278
271 271 271 271 271 272 272 272 272 272 272 273 273 273 273 274 274 274 274 275 275 275 275 275 276 275 275 275 275 274 274 274 274 274 274 273 273 273 273 272 272 272 272 272 272 272 272 273 273 274 275 275 276 276 276 277 277 278 278 277 277 277 277 277 278 278 278 278 278 279 279 279 279 279
272 272 272 272 272 272 273 273 273 273 273 273 274 274 274 274 274 275 275 275 276 276 276 276 276 276 277 277 277 277 277 277 277 277 276 276 276 276 275 275 275 275 275 275 274 275 274 274 274 274 275 275 275 276 276 276 276 277 277 277 277 277 278 278 279 279 279 279 279 279 279 279 279 279
275 274 274 274 274 273 273 273 273 273 274 274 274 274 274 274 274 274 275 275 275 276 276 276 277 277 277 277 277 277 277 278 278 278 278 278 278 278 278 277 277 277 276 276 277 277 277 277 277 276 276 276 277 277 277 277 277 277 278 278 278 277 277 277 278 278 279 279 279 279 279 279 279 280
276 276 276 276 276 276 275 275 275 274 274 275 275 275 275 275 275 275 275 275 275 275 275 276 276 277 277 278 278 278 278 279 279 279 279 279 279 279 279 279 279 279 279 279 278 279 279 279 279 279 278 278 278 278 278 278 278 278 278 279 279 279 279 278 278 278 278 279 279 279 279 279 280 280
276 276 276 276 276 276 276 276 276 276 276 275 275 275 275 275 276 276 276 276 276 276 276 276 276 276 277 277 277 278 278 279 279 279 279 280 280 280 280 280 280 280 281 280 280 280 280 280 280 280 280 280 280 279 279 279 279 279 279 279 279 279 280 280 279 279 279 278 279 279 279 280 280 279
Height
5936 5936 5936 5935 5935 5936 5936 5936 5936 5936 5935 5935 5934 5934 5935 5935 5935 5934 5934 5933 5933 5932 5932 5931 5931 5930 5930 5930 5929 5927 5927 5927 5927 5927 5928 5928 5928 5927 5927 5927 5927 5926 5925 5925 5924 5924 5924 5923 5923 5923 5923 5923 5922 5922 5922 5922 5922 5922 5922 5923 5923 5923 5923 5923 5923 5923 5923 5923 5923 5923 5923 5923 5923 5923
5935 5935 5936 5936 5936 5936 5936 5936 5936 5936 5936 5936 5935 5935 5935 5935 5935 5935 5935 5935 5934 5934 5933 5932 5931 5931 5932 5932 5931 5929 5928 5929 5929 5928 5929 5928 5928 5927 5927 5927 5927 5926 5926 5926 5925 5925 5924 5924 5924 5924 5923 5923 5923 5923 5923 5923 5923 5923 5923 5923 5923 5924 5924 5924 5924 5924 5924 5924 5924 5924 5924 5924 5924 5924
5935 5935 5935 5935 5935 5935 5936 5936 5936 5936 5936 5936 5936 5936 5936 5936 5936 5936 5936 5936 5936 5936 5935 5934 5933 5933 5933 5933 5932 5930 5930 5930 5930 5929 5929 5928 5928 5927 5927 5927 5927 5927 5926 5926 5925 5925 5924 5924 5924 5924 5924 5924 5923 5923 5924 5924 5924 5924 5924 5924 5924 5924 5924 5924 5924 5924 5924 5924 5924 5924 5924 5924 5924 5924
5934 5934 5934 5934 5934 5935 5935 5936 5936 5936 5936 5936 5936 5937 5936 5936 5936 5936 5936 5936 5935 5935 5936 5935 5934 5933 5933 5933 5932 5931 5931 5931 5931 5930 5929 5928 5928 5928 5928 5927 5926 5926 5926 5925 5925 5925 5924 5924 5924 5924 5924 5924 5924 5923 5923 5924 5924 5924 5924 5924 5924 5924 5924 5924 5924 5924 5924 5924 5924 5924 5925 5925 5925 5925
5934 5934 5934 5934 5934 5935 5935 5935 5935 5936 5936 5936 5936 5937 5936 5936 5936 5936 5936 5935 5935 5935 5934 5934 5933 5933 5933 5932 5932 5932 5931 5931 5931 5930 5929 5929 5928 5928 5928 5927 5926 5926 5925 5925 5925 5924 5924 5924 5924 5924 5924 5924 5923 5923 5923 5923 5923 5923 5924 5924 5924 5924 5924 5924 5924 5924 5923 5924 5924 5924 5924 5924 5924 5924
5933 5934 5934 5934 5934 5935 5935 5935 5935 5936 5935 5936 5936 5936 5936 5936 5936 5936 5935 5935 5935 5934 5934 5933 5933 5933 5932 5932 5932 5931 5931 5931 5931 5930 5929 5929 5928 5928 5927 5926 5926 5925 5925 5925 5924 5924 5924 5924 5923 5923 5923 5923 5923 5923 5923 5923 5923 5923 5923 5923 5923 5924 5924 5924 5924 5923 5923 5923 5923 5923 5923 5923 5923 5923
5933 5933 5933 5933 5934 5934 5935 5935 5935 5936 5936 5936 5936 5936 5936 5936 5935 5935 5934 5934 5935 5934 5933 5933 5933 5933 5933 5932 5932 5931 5931 5930 5930 5929 5929 5929 5928 5927 5926 5926 5926 5925 5925 5924 5924 5924 5923 5923 5923 5923 5922 5922 5922 5922 5922 5922 5922 5922 5922 5922 5922 5922 5923 5923 5923 5923 5923 5923 5923 5923 5923 5923 5923 5923
5932 5932 5932 5933 5933 5934 5934 5935 5935 5935 5935 5936 5935 5935 5935 5935 5935 5934 5934 5934 5934 5933 5933 5933 5933 5933 5932 5932 5932 5931 5931 5930 5930 5929 5929 5928 5927 5927 5926 5925 5925 5925 5924 5924 5924 5923 5923 5922 5922 5922 5922 5922 5921 5921 5921 5921 5921 5921 5921 5921 5921 5921 5921 5921 5921 5921 5922 5922 5922 5922 5922 5922 5922 5922
5931 5931 5931 5931 5932 5933 5933 5934 5934 5934 5934 5934 5935 5935 5934 5934 5934 5934 5934 5934 5933 5933 5933 5933 5932 5931 5931 5931 5931 5930 5930 5930 5929 5928 5928 5927 5926 5926 5926 5925 5924 5924 5924 5923 5923 5923 5922 5922 5922 5921 5921 5921 5921 5920 5920 5920 5920 5920 5920 5920 5920 5920 5920 5920 5920 5920 5920 5920 5920 5920 5920 5920 5920 5920
5930 5930 5930 5930 5931 5931 5931 5932 5932 5932 5932 5932 5933 5933 5933 5932 5932 5932 5933 5933 5932 5932 5933 5932 5931 5930 5930 5929 5928 5928 5929 5929 5929 5928 5927 5926 5925 5925 5925 5924 5923 5923 5922 5922 5922 5922 5922 5921 5921 5921 5920 5920 5920 5920 5919 5919 5919 5919 5919 5919 5919 5919 5918 5918 5918 5918 5918 5918 5918 5918 5918 5918 5918 5918
5928 5928 5928 5929 5929 5929 5929 5930 5931 5931 5931 5930 5930 5931 5931 5930 5929 5930 5931 5931 5930 5930 5931 5930 5930 5930 5930 5929 5928 5927 5927 5928 5927 5927 5926 5925 5924 5924 5923 5923 5922 5922 5921 5920 5920 5920 5920 5920 5920 5920 5920 5919 5919 5919 5919 5918 5918 5918 5918 5918 5917 5917 5917 5917 5917 5916 5916 5916 5916 5916 5916 5916 5917 5917
5926 5927 5927 5927 5928 5928 5928 5928 5929 5930 5930 5929 5929 5929 5930 5929 5928 5928 5928 5928 5928 5928 5928 5928 5929 5929 5929 5929 5928 5927 5927 5927 5926 5925 5925 5924 5923 5923 5922 5922 5921 5921 5920 5920 5919 5918 5918 5918 5918 5918 5918 5918 5918 5918 5918 5918 5917 5917 5917 5916 5916 5916 5916 5915 5915 5915 5915 5915 5914 5914 5914 5914 5915 5915
5924 5924 5925 5925 5926 5926 5926 5926 5927 5928 5928 5928 5928 5928 5928 5929 5927 5927 5926 5926 5926 5926 5926 5927 5927 5926 5926 5926 5926 5926 5926 5925 5924 5923 5923 5923 5922 5922 5921 5920 5920 5920 5920 5919 5918 5918 5917 5917 5916 5916 5916 5916 5916 5916 5917 5917 5916 5916 5915 5915 5915 5915 5914 5914 5914 5914 5913 5913 5913 5912 5912 5912 5912 5912
5922 5922 5922 5922 5923 5923 5924 5925 5925 5925 5925 5925 5926 5927 5928 5928 5926 5925 5924 5924 5924 5924 5924 5924 5924 5923 5923 5923 5923 5924 5923 5923 5922 5922 5921 5921 5921 5920 5920 5919 5918 5918 5918 5918 5917 5917 5916 5916 5915 5915 5915 5914 5914 5914 5914 5914 5914 5914 5914 5914 5913 5913 5913 5913 5913 5912 5912 5911 5911 5910 5910 5910 5910 5910
5920 5919 5919 5919 5920 5921 5921 5922 5921 5921 5921 5922 5923 5925 5925 5925 5924 5922 5922 5922 5921 5921 5921 5922 5922 5921 5921 5921 5921 5921 5921 5920 5920 5919 5920 5919 5919 5918 5918 5917 5917 5916 5916 5916 5916 5916 5915 5915 5914 5914 5914 5913 5913 5912 5912 5912 5912 5912 5912 5912 5912 5912 5911 5911 5911 5911 5910 5910 5909 5909 5908 5908 5908 5907
5918 5918 5917 5917 5918 5918 5918 5919 5918 5918 5919 5920 5921 5922 5922 5921 5920 5919 5919 5919 5919 5918 5918 5919 5919 5919 5919 5919 5918 5918 5918 5918 5917 5917 5917 5917 5916 5916 5916 5916 5915 5914 5914 5914 5914 5914 5914 5913 5913 5913 5912 5912 5912 5911 5911 5910 5910 5909 5909 5909 5909 5909 5909 5909 5909 5909 5909 5908 5908 5908 5907 5906 5906 5906
5916 5916 5915 5915 5916 5916 5915 5915 5915 5916 5917 5918 5918 5918 5918 5918 5918 5917 5915 5915 5915 5915 5915 5916 5916 5916 5916 5916 5916 5915 5915 5915 5915 5915 5915 5915 5914 5914 5913 5913 5913 5913 5912 5912 5912 5912 5911 5911 5911 5911 5910 5909 5909 5909 5909 5909 5908 5907 5907 5906 5906 5906 5906 5906 5906 5906 5905 5905 5905 5905 5905 5904 5904 5904
5913 5913 5913 5913 5913 5914 5913 5913 5913 5914 5915 5915 5915 5916 5915 5915 5915 5914 5913 5912 5912 5912 5912 5913 5913 5913 5914 5914 5913 5913 5912 5912 5913 5913 5913 5912 5912 5911 5910 5910 5910 5910 5910 5910 5909 5909 5908 5908 5908 5908 5908 5907 5906 5906 5906 5906 5906 5905 5905 5904 5904 5903 5903 5903 5902 5902 5902 5902 5902 5901 5901 5901 5901 5900
5910 5910 5910 5909 5909 5910 5911 5912 5912 5912 5912 5911 5912 5912 5912 5912 5912 5911 5910 5910 5910 5910 5910 5910 5911 5911 5911 5912 5911 5910 5910 5909 5910 5910 5910 5910 5910 5909 5908 5907 5907 5907 5907 5907 5907 5907 5906 5906 5905 5905 5905 5904 5903 5903 5903 5902 5902 5902 5902 5902 5901 5901 5901 5900 5899 5899 5898 5898 5898 5898 5897 5897 5897 5896
5907 5907 5906 5906 5906 5907 5909 5909 5908 5907 5907 5908 5908 5908 5908 5908 5908 5907 5907 5907 5907 5907 5907 5907 5907 5908 5908 5908 5907 5907 5907 5907 5907 5907 5906 5906 5906 5906 5905 5905 5904 5904 5903 5903 5903 5903 5903 5903 5902 5902 5902 5902 5900 5899 5899 5899 5899 5899 5899 5898 5898 5898 5898 5897 5897 5896 5896 5895 5895 5894 5894 5893 5893 5893
5903 5903 5903 5902 5902 5904 5905 5903 5901 5901 5903 5904 5905 5904 5904 5904 5904 5903 5903 5903 5903 5903 5903 5903 5902 5902 5902 5902 5902 5903 5903 5903 5903 5903 5902 5902 5902 5902 5902 5901 5900 5900 5899 5899 5899 5900 5900 5900 5899 5898 5899 5898 5897 5896 5895 5895 5896 5896 5895 5895 5894 5894 5894 5894 5894 5893 5893 5892 5892 5891 5891 5890 5890 5890
5899 5899 5898 5898 5898 5899 5899 5897 5896 5896 5897 5899 5900 5901 5901 5901 5901 5900 5900 5899 5899 5898 5898 5898 5898 5898 5898 5898 5898 5898 5898 5899 5899 5899 5898 5898 5898 5899 5898 5897 5896 5895 5894 5894 5894 5895 5896 5895 5895 5895 5895 5894 5894 5895 5892 5890 5890 5891 5891 5891 5890 5890 5890 5890 5890 5889 5889 5889 5888 5887 5887 5887 5886 5886
5896 5895 5894 5893 5893 5893 5893 5892 5893 5893 5893 5894 5895 5896 5897 5897 5897 5897 5896 5895 5894 5893 5894 5894 5893 5894 5894 5894 5894 5894 5894 5895 5895 5895 5894 5893 5894 5894 5894 5893 5892 5892 5890 5889 5889 5891 5892 5892 5890 5891 5891 5889 5889 5891 5891 5888 5886 5886 5886 5886 5886 5885 5885 5885 5885 5885 5885 5884 5884 5883 5883 5883 5882 5882
5891 5891 5890 5888 5887 5887 5888 5888 5889 5889 5889 5889 5890 5891 5892 5893 5893 5892 5892 5891 5890 5889 5889 5889 5889 5889 5889 5889 5890 5890 5890 5891 5891 5889 5887 5887 5888 5888 5888 5888 5888 5888 5888 5886 5886 5886 5888 5888 5886 5886 5887 5885 5883 5885 5887 5885 5883 5883 5882 5881 5881 5880 5880 5880 5880 5880 5880 5879 5879 5879 5878 5878 5878 5877
5885 5886 5886 5884 5882 5883 5884 5884 5885 5885 5885 5885 5886 5886 5887 5888 5888 5887 5887 5887 5886 5885 5885 5885 5884 5884 5885 5885 5885 5885 5885 5885 5886 5885 5883 5883 5883 5883 5883 5883 5883 5884 5883 5882 5881 5882 5883 5882 5881 5881 5882 5881 5879 5879 5880 5880 5879 5878 5877 5876 5876 5875 5875 5875 5875 5875 5874 5874 5874 5873 5873 5872 5872 5872
5879 5879 5880 5880 5879 5879 5879 5879 5879 5879 5880 5881 5882 5883 5883 5882 5882 5882 5882 5882 5881 5881 5880 5880 5880 5880 5880 5880 5880 5879 5879 5881 5881 5881 5880 5879 5879 5879 5878 5878 5877 5877 5877 5876 5876 5877 5877 5876 5875 5874 5875 5876 5873 5873 5874 5873 5873 5873 5872 5870 5871 5871 5870 5870 5871 5870 5870 5869 5868 5868 5868 5868 5867 5867
5873 5874 5875 5875 5875 5874 5873 5873 5873 5873 5874 5875 5876 5877 5878 5877 5877 5877 5876 5876 5876 5876 5876 5876 5876 5876 5876 5876 5874 5873 5873 5874 5873 5873 5873 5872 5872 5873 5873 5872 5872 5871 5871 5871 5870 5870 5870 5870 5870 5868 5868 5869 5868 5866 5867 5866 5866 5867 5866 5865 5865 5865 5865 5865 5865 5865 5865 5864 5863 5862 5863 5863 5862 5861
5868 5868 5869 5869 5868 5867 5867 5867 5867 5868 5869 5870 5870 5871 5872 5872 5871 5871 5871 5870 5870 5870 5870 5870 5871 5871 5871 5871 5869 5867 5867 5867 5865 5866 5867 5866 5867 5868 5867 5867 5866 5866 5866 5866 5865 5864 5864 5864 5864 5862 5861 5862 5862 5861 5861 5860 5859 5860 5861 5860 5859 5859 5859 5859 5859 5859 5858 5858 5858 5857 5856 5857 5857 5856
5861 5862 5862 5862 5862 5861 5861 5861 5862 5862 5863 5864 5864 5865 5865 5866 5866 5865 5865 5865 5864 5864 5864 5865 5865 5866 5865 5865 5864 5863 5863 5863 5862 5862 5861 5861 5861 5862 5862 5861 5861 5861 5861 5861 5860 5860 5859 5858 5858 5857 5856 5856 5856 5856 5856 5855 5854 5854 5855 5856 5854 5853 5854 5854 5853 5853 5853 5852 5851 5851 5850 5850 5850 5850
5855 5855 5855 5855 5856 5856 5856 5856 5856 5857 5857 5858 5858 5859 5859 5859 5860 5860 5860 5860 5859 5859 5859 5859 5860 5860 5860 5860 5859 5859 5859 5858 5857 5856 5856 5856 5857 5857 5856 5856 5856 5856 5856 5856 5856 5855 5853 5852 5852 5851 5851 5851 5851 5851 5851 5851 5850 5850 5850 5851 5850 5849 5850 5850 5848 5848 5848 5847 5845 5845 5845 5844 5844 5843
5849 5849 5849 5849 5850 5850 5851 5851 5851 5851 5851 5852 5852 5853 5853 5854 5854 5854 5855 5855 5855 5855 5854 5854 5855 5855 5855 5854 5854 5854 5853 5852 5851 5851 5851 5851 5852 5852 5852 5851 5851 5850 5850 5850 5850 5849 5848 5847 5847 5847 5847 5847 5846 5846 5846 5846 5846 5845 5846 5846 5845 5843 5844 5845 5844 5842 5842 5841 5840 5839 5839 5839 5837 5836
5843 5843 5843 5844 5845 5844 5845 5845 5844 5845 5846 5846 5847 5848 5848 5849 5849 5849 5850 5850 5850 5850 5850 5850 5850 5850 5849 5849 5849 5849 5848 5847 5847 5847 5846 5846 5846 5847 5846 5846 5846 5846 5845 5844 5843 5843 5842 5842 5842 5841 5841 5841 5841 5841 5841 5840 5840 5840 5840 5841 5840 5838 5837 5838 5838 5837 5836 5834 5833 5833 5833 5832 5831 5830
5837 5838 5838 5839 5839 5839 5839 5839 5839 5840 5841 5842 5842 5843 5844 5844 5845 5845 5845 5845 5845 5846 5846 5845 5845 5845 5845 5845 5845 5845 5844 5842 5842 5842 5842 5842 5841 5841 5841 5841 5840 5840 5839 5838 5838 5837 5837 5837 5836 5836 5836 5836 5836 5836 5835 5835 5835 5834 5834 5834 5833 5832 5831 5831 5831 5831 5829 5828 5826 5826 5826 5825 5824 5822
5832 5832 5833 5833 5833 5834 5834 5834 5835 5836 5836 5837 5838 5838 5839 5839 5840 5840 5840 5840 5840 5840 5840 5840 5840 5840 5840 5840 5839 5839 5838 5837 5837 5837 5836 5836 5836 5836 5836 5836 5835 5834 5833 5833 5833 5832 5832 5831 5830 5830 5829 5830 5830 5829 5829 5828 5828 5828 5827 5826 5826 5825 5825 5824 5824 5823 5822 5820 5819 5818 5817 5816 5815 5815
5827 5828 5828 5828 5828 5829 5830 5830 5831 5831 5832 5833 5833 5833 5834 5834 5834 5834 5834 5834 5834 5834 5834 5834 5834 5834 5835 5834 5834 5833 5832 5831 5831 5831 5831 5830 5830 5830 5830 5830 5830 5829 5829 5827 5827 5826 5826 5824 5824 5823 5823 5822 5822 5821 5821 5821 5821 5821 5821 5820 5818 5818 5817 5816 5816 5815 5814 5813 5812 5810 5809 5807 5806 5806
5824 5824 5824 5824 5825 5825 5826 5826 5827 5827 5828 5828 5828 5828 5828 5828 5828 5828 5828 5828 5829 5829 5829 5828 5828 5828 5828 5829 5828 5827 5827 5826 5826 5825 5825 5824 5824 5824 5824 5824 5824 5823 5823 5822 5821 5821 5820 5819 5818 5817 5816 5816 5815 5814 5814 5814 5813 5813 5813 5811 5811 5810 5809 5808 5807 5806 5806 5805 5804 5802 5801 5799 5796 5795
5820 5820 5820 5820 5821 5821 5821 5821 5822 5822 5823 5823 5823 5823 5823 5823 5823 5823 5823 5823 5823 5823 5823 5823 5823 5822 5822 5822 5822 5822 5821 5820 5820 5819 5819 5818 5818 5817 5817 5817 5817 5817 5817 5816 5816 5815 5814 5813 5812 5810 5810 5809 5807 5807 5808 5808 5807 5806 5804 5802 5801 5802 5802 5801 5800 5798 5796 5795 5795 5794 5793 5791 5789 5786
5815 5815 5815 5815 5815 5815 5815 5816 5816 5817 5817 5817 5817 5817 5817 5817 5817 5817 5817 5817 5817 5817 5817 5817 5816 5816 5816 5816 5815 5815 5815 5814 5813 5813 5812 5812 5811 5810 5810 5809 5809 5809 5808 5808 5808 5808 5808 5807 5805 5803 5802 5801 5800 5799 5799 5800 5800 5800 5799 5796 5793 5792 5793 5793 5791 5790 5788 5786 5786 5785 5784 5782 5780 5778
5809 5809 5809 5809 5809 5809 5809 5810 5810 5810 5810 5810 5810 5810 5810 5810 5810 5810 5810 5810 5810 5810 5810 5810 5810 5809 5809 5809 5808 5808 5807 5807 5806 5806 5805 5804 5804 5803 5802 5802 5801 5800 5800 5799 5799 5799 5799 5799 5798 5796 5793 5792 5792 5791 5790 5790 5790 5791 5792 5790 5786 5785 5785 5784 5782 5781 5780 5778 5777 5776 5774 5773 5771 5769
5803 5803 5803 5803 5803 5803 5803 5803 5803 5803 5803 5803 5803 5803 5803 5803 5803 5803 5802 5802 5802 5802 5802 5802 5802 5802 5801 5801 5801 5800 5799 5799 5799 5798 5797 5797 5796 5795 5795 5794 5793 5792 5792 5791 5790 5789 5789 5791 5791 5788 5784 5784 5783 5782 5781 5780 5779 5779 5780 5782 5780 5778 5777 5775 5773 5771 5770 5768 5767 5765 5764 5763 5761 5759
5797 5797 5796 5796 5796 5796 5796 5796 5796 5796 5796 5796 5796 5795 5795 5796 5795 5795 5795 5794 5794 5794 5794 5793 5793 5793 5793 5792 5792 5791 5791 5791 5790 5790 5789 5788 5788 5787 5787 5785 5784 5783 5783 5782 5781 5780 5780 5782 5782 5778 5775 5775 5775 5773 5772 5771 5770 5768 5768 5770 5770 5768 5766 5765 5763 5762 5760 5758 5756 5754 5753 5752 5750 5747
5790 5790 5790 5789 5789 5789 5789 5788 5788 5788 5788 5788 5788 5787 5787 5788 5787 5787 5786 5787 5786 5785 5785 5785 5784 5784 5784 5783 5783 5782 5781 5781 5781 5780 5780 5779 5778 5778 5778 5776 5775 5774 5773 5772 5771 5770 5770 5772 5771 5769 5767 5765 5765 5764 5762 5761 5760 5758 5757 5757 5758 5758 5756 5754 5752 5750 5749 5747 5746 5744 5742 5740 5738 5736
5783 5783 5782 5782 5782 5781 5781 5780 5780 5780 5780 5780 5780 5780 5779 5779 5779 5778 5778 5778 5777 5777 5776 5776 5775 5775 5775 5774 5774 5772 5771 5772 5771 5770 5769 5769 5768 5768 5767 5766 5765 5765 5764 5762 5761 5760 5759 5760 5759 5759 5757 5755 5754 5753 5752 5751 5750 5748 5747 5745 5745 5745 5745 5744 5743 5741 5738 5736 5734 5733 5731 5729 5727 5725
5775 5775 5775 5774 5774 5774 5773 5772 5772 5772 5772 5772 5771 5771 5771 5770 5770 5770 5770 5769 5769 5768 5768 5767 5767 5766 5765 5765 5764 5763 5762 5762 5762 5760 5759 5759 5759 5758 5757 5756 5755 5754 5753 5752 5751 5750 5749 5749 5748 5747 5746 5745 5743 5742 5741 5740 5739 5737 5736 5735 5733 5731 5731 5731 5731 5730 5729 5727 5724 5721 5720 5719 5717 5714
5768 5767 5767 5766 5766 5765 5765 5764 5764 5763 5764 5763 5762 5762 5762 5763 5762 5761 5761 5760 5760 5759 5758 5758 5758 5757 5756 5756 5755 5754 5753 5753 5752 5751 5750 5749 5748 5747 5746 5746 5745 5744 5743 5742 5741 5740 5739 5739 5738 5736 5735 5734 5733 5731 5730 5729 5728 5727 5725 5724 5722 5720 5719 5718 5718 5717 5717 5716 5714 5712 5709 5707 5705 5703